Weather History for Springfield, MO

Change the Weather History Date:

Thursday, August 21, 2014

  Actual Average Record
Temperature  
Mean Temperature 86 °F 78 °F  
Max Temperature 98 °F 89 °F 100 °F (1972)
Min Temperature 73 °F 66 °F 46 °F (1950)
Degree Days  
Heating Degree Days 0 0  
Month to date heating degree days 0 0  
Since 1 June heating degree days 0 9  
Since 1 July heating degree days 0 0  
Cooling Degree Days 21 13  
Month to date cooling degree days 277 286  
Year to date cooling degree days 1056 1074  
Since 1 June cooling degree days 863 959  
Growing Degree Days 36 (Base 50)    
Moisture  
Dew Point 67 °F    
Average Humidity 60    
Maximum Humidity 87    
Minimum Humidity 33    
Precipitation  
Precipitation 0.00 in 0.12 in 1.93 in (1969)
Month to date precipitation 1.17 2.27  
Year to date precipitation 21.18 28.83  
Snow  
Snow 0.00 in - - ()
Month to date snowfall 0.0  
Since 1 June snowfall 0.0  
Since 1 July snowfall 0.0  
Snow Depth 0.00 in    
Sea Level Pressure  
Sea Level Pressure 29.95 in    
Wind  
Wind Speed 13 mph (SSW)    
Max Wind Speed 22 mph    
Max Gust Speed 27 mph    
Visibility 10 miles    
Events      
T = Trace of Precipitation, MM = Missing Value Source: NWS Daily Summary

Daily Weather History Graph

Daily Weather History Graph

Search for Another Location

Airport:

Trip Planner

Search our weather history database for the weather conditions in past years. The results will help you decide how hot, cold, wet, or windy it might be!

Date:

Astronomy

Aug. 21, 2014 Rise Set
Actual Time 6:35 AM CDT 7:57 PM CDT
Civil Twilight 6:07 AM CDT 8:24 PM CDT
Nautical Twilight 5:34 AM CDT 8:57 PM CDT
Astronomical Twilight 5:00 AM CDT 9:31 PM CDT
Moon 3:08 AM CDT 5:25 PM CDT
Length of Visible Light 14h 17m
Length of Day
13h 22m
Waning Crescent, 13% of the Moon is Illuminated
Aug 21
Waning Crescent
Aug 25
New
Sep 2
First Quarter
Sep 8
Full
Sep 15
Last Quarter

Hourly Weather History & Observations

Time (CDT) Temp. Heat Index Dew Point Humidity Pressure Visibility Wind Dir Wind Speed Gust Speed Precip Events Conditions
12:52 AM 77.0 °F - 66.0 °F 69% 29.95 in 10.0 mi South 13.8 mph - N/A   Clear
1:52 AM 75.9 °F - 66.9 °F 74% 29.95 in 10.0 mi South 11.5 mph - N/A   Clear
2:52 AM 75.0 °F - 66.9 °F 76% 29.94 in 10.0 mi South 9.2 mph - N/A   Clear
3:52 AM 73.9 °F - 66.9 °F 79% 29.95 in 10.0 mi South 10.4 mph - N/A   Clear
4:52 AM 73.0 °F - 66.9 °F 81% 29.95 in 10.0 mi SSE 12.7 mph - N/A   Clear
5:52 AM 73.0 °F - 68.0 °F 84% 29.96 in 10.0 mi South 11.5 mph - N/A   Clear
6:52 AM 73.0 °F - 69.1 °F 87% 29.97 in 10.0 mi SSE 11.5 mph - N/A   Clear
7:52 AM 75.9 °F - 69.1 °F 79% 29.98 in 10.0 mi South 12.7 mph - N/A   Clear
8:52 AM 80.1 °F 83.2 °F 70.0 °F 71% 29.99 in 10.0 mi South 13.8 mph - N/A   Clear
9:52 AM 84.0 °F 88.4 °F 70.0 °F 63% 29.99 in 10.0 mi SW 15.0 mph - N/A   Clear
10:52 AM 88.0 °F 92.9 °F 70.0 °F 55% 30.00 in 10.0 mi SSW 17.3 mph - N/A   Clear
11:52 AM 91.9 °F 96.9 °F 69.1 °F 47% 29.99 in 10.0 mi SW 19.6 mph 24.2 mph N/A   Clear
12:52 PM 93.9 °F 98.6 °F 68.0 °F 43% 29.97 in 10.0 mi SW 16.1 mph - N/A   Clear
1:52 PM 96.1 °F 99.9 °F 66.9 °F 38% 29.96 in 10.0 mi SSW 15.0 mph - N/A   Clear
2:52 PM 97.0 °F 99.9 °F 64.9 °F 35% 29.94 in 10.0 mi SW 16.1 mph 21.9 mph N/A   Clear
3:52 PM 97.0 °F 98.3 °F 63.0 °F 32% 29.92 in 10.0 mi SSW 13.8 mph - N/A   Clear
4:52 PM 96.1 °F 96.9 °F 62.1 °F 32% 29.92 in 10.0 mi SSW 12.7 mph - N/A   Partly Cloudy
5:52 PM 95.0 °F 97.0 °F 64.0 °F 36% 29.91 in 10.0 mi SSW 10.4 mph - N/A   Partly Cloudy
6:52 PM 93.0 °F 94.6 °F 64.0 °F 38% 29.90 in 10.0 mi South 12.7 mph - N/A   Clear
7:52 PM 87.1 °F 89.2 °F 66.0 °F 49% 29.92 in 10.0 mi SSW 9.2 mph - N/A   Clear
8:52 PM 84.0 °F 86.3 °F 66.0 °F 55% 29.94 in 10.0 mi SSW 11.5 mph - N/A   Clear
10:52 PM 78.1 °F - 66.9 °F 68% 29.97 in 10.0 mi South 9.2 mph - N/A   Clear
11:52 PM 78.1 °F - 68.0 °F 71% 29.97 in 10.0 mi South 9.2 mph - N/A   Clear